Location: Asheville, NC
(35.6000°N, 82.5500°W)
Time: 02:22:36
(UTC-04:00)

Vanguard 3 - Pass Details

Date: 12 March 2018
Orbit: 508 x 3264 km, 33.3° (Epoch: 20 June)

Event Time Altitude Azimuth Distance (km) Brightness Sun altitude
Rises 06:33:40 0° 194° (SSW) 6,796 11.6 -15.3°
Reaches altitude 10° 06:39:42 10° 181° (S) 6,034 11.5 -14.1°
Maximum altitude 06:53:01 23° 138° (SE) 5,131 11.7 -11.4°
Drops below altitude 10° 07:05:36 10° 95° (E) 5,758 13.1 -8.9°
Sets 07:10:59 0° 82° (E) 6,438 14.1 -7.8°
